Weather in Prosyanka

Russia / Stavropol Krai     45°07′20″N   42°50′54″E
temp.,
°C
wind,
m/s
gust,
m/s
humid.,
%
clouds,
%
prec.,
mm/h
press.,
hPa
HPBL,
m
29 july, thu
thu2900:00+18s23600 0.0 101628
03:00+17sse11580 0.0 101611
06:00+19e11570 0.0 101511
09:00+25ese35393 0.0 1015679
12:00+28ese56305 0.0 10142077
15:00+30se56270 0.0 10122357
18:00+28sse46360 0.0 1012374
21:00+22ese11420 0.0 101211
30 july, fri
fri3000:00+21ese22430 0.0 101313
03:00+20s22490 0.0 101214
06:00+20se22490 0.0 101216
09:00+26ese56320 0.0 1013670
12:00+30ese67240 0.0 10121780
15:00+31ese56230 0.0 10102288
18:00+30se36350 0.0 1009294
21:00+24se22472 0.0 101013
31 july, sat
sat3100:00+22se4104628 0.0 1010189
03:00+20s225419 0.0 101023
06:00+20s23586 0.0 101050
09:00+27ssw22430 0.0 1010613
12:00+31ese22320 0.0 10091937
15:00+32e32270 0.0 10092592
18:00+31ese22310 0.0 1009697
21:00+26se11370 0.0 101011
1 august, sun
sun100:00+24sse11410 0.0 101011
03:00+22ssw11460 0.0 101011
06:00+22s11510 0.0 101113
09:00+29ese11380 0.0 1011574
12:00+33ese34290 0.0 10102414
15:00+35ese45220 0.0 10092979
18:00+33e46282 0.0 1009292
21:00+27ese223734 0.0 101016
2 august, mon
mon200:00+26sse22410 0.0 100911
03:00+23ese11430 0.0 100911
06:00+23sse11480 0.0 101012
09:00+30se33350 0.0 1011651
12:00+33ese22260 0.0 10091988
15:00+35e22220 0.0 10082927
18:00+34e12275 0.0 1008113
21:00+28se11320 0.0 100911